NSZ4506 EDDB-ESSA

Flight info

Callsign NSZ4506
Flight time 1h 16m
Altitude 34000
Route GERGA4N GERGA M725 RENKI Y89 USEDU/N0431F330 DCT BANUB DCT POKEN DCT VIBAR/N0386F270 Z227 NILUG
Aircraft B38M/M-SDE1FGHILORVWXY/HB1

Departure

Time 2026-05-04 10:20
Airport Berlin Brandenburg Airport (EDDB)

Arrival

Time 2026-05-04 11:36
Airport Stockholm-Arlanda Airport (ESSA)
Time Latitude Longitude Altitude Speed Heading
2026-05-04 09:46 52.36803 13.50800 158 ft 0 kts 159°
2026-05-04 09:47 52.36804 13.50800 158 ft 0 kts 159°
2026-05-04 10:00 52.36804 13.50799 158 ft 0 kts 159°
2026-05-04 10:08 52.36890 13.50821 158 ft 2 kts 249°
2026-05-04 10:08 52.36891 13.50825 158 ft 0 kts 249°
2026-05-04 10:11 52.36891 13.50824 158 ft 0 kts 249°
2026-05-04 10:11 52.36884 13.50793 158 ft 7 kts 249°
2026-05-04 10:11 52.36849 13.50662 158 ft 18 kts 249°
2026-05-04 10:11 52.36801 13.50442 159 ft 22 kts 248°
2026-05-04 10:12 52.36738 13.50199 155 ft 25 kts 232°
2026-05-04 10:12 52.36596 13.50219 153 ft 23 kts 159°
2026-05-04 10:12 52.36445 13.50318 153 ft 24 kts 158°
2026-05-04 10:12 52.36286 13.50400 153 ft 23 kts 183°
2026-05-04 10:13 52.36178 13.50410 152 ft 24 kts 160°
2026-05-04 10:13 52.36017 13.50513 152 ft 26 kts 157°
2026-05-04 10:13 52.35848 13.50621 152 ft 27 kts 160°
2026-05-04 10:13 52.35676 13.50730 152 ft 23 kts 160°
2026-05-04 10:14 52.35596 13.50709 156 ft 3 kts 218°
2026-05-04 10:14 52.35595 13.50708 156 ft 0 kts 218°
2026-05-04 10:19 52.35351 13.50252 159 ft 37 kts 248°
2026-05-04 10:19 52.35170 13.49489 162 ft 105 kts 249°
2026-05-04 10:19 52.34840 13.48096 164 ft 159 kts 249°
2026-05-04 10:19 52.34406 13.46272 530 ft 180 kts 249°
2026-05-04 10:20 52.33821 13.44419 1295 ft 183 kts 232°
2026-05-04 10:20 52.32932 13.42920 2103 ft 187 kts 227°
2026-05-04 10:20 52.31962 13.41338 2632 ft 211 kts 227°
2026-05-04 10:20 52.30954 13.39569 3499 ft 214 kts 230°
2026-05-04 10:21 52.29938 13.37710 4325 ft 222 kts 230°
2026-05-04 10:21 52.28925 13.35809 5278 ft 224 kts 230°
2026-05-04 10:21 52.27888 13.33880 6163 ft 227 kts 230°
2026-05-04 10:21 52.26836 13.31937 7006 ft 232 kts 226°
2026-05-04 10:22 52.23527 13.31103 7978 ft 284 kts 156°
2026-05-04 10:22 52.22077 13.33264 8995 ft 290 kts 124°
2026-05-04 10:22 52.21466 13.36453 9741 ft 306 kts 92°
2026-05-04 10:23 52.21942 13.39838 10470 ft 315 kts 62°
2026-05-04 10:23 52.23374 13.42616 10881 ft 331 kts 37°
2026-05-04 10:25 52.36010 13.62548 15639 ft 378 kts 44°
2026-05-04 10:25 52.37872 13.65621 16325 ft 382 kts 44°
2026-05-04 10:25 52.39748 13.68721 17008 ft 385 kts 44°
2026-05-04 10:25 52.41643 13.71855 17691 ft 389 kts 44°
2026-05-04 10:26 52.43556 13.75023 18341 ft 393 kts 44°
2026-05-04 10:26 52.45488 13.78228 18921 ft 397 kts 43°
2026-05-04 10:26 52.47441 13.81466 19446 ft 401 kts 43°
2026-05-04 10:26 52.49407 13.84734 20020 ft 404 kts 44°
2026-05-04 10:27 52.51390 13.88031 20574 ft 407 kts 44°
2026-05-04 10:27 52.53382 13.91349 21123 ft 410 kts 44°
2026-05-04 10:27 52.55387 13.94690 21673 ft 413 kts 44°
2026-05-04 10:27 52.57454 13.97996 22186 ft 415 kts 36°
2026-05-04 10:28 52.59917 14.00411 22716 ft 412 kts 18°
2026-05-04 10:28 52.62675 14.01511 23161 ft 408 kts
2026-05-04 10:28 52.65498 14.01383 23631 ft 406 kts 351°
2026-05-04 10:28 52.68330 14.00940 24015 ft 410 kts 349°
2026-05-04 10:29 52.71163 14.00421 24473 ft 411 kts 349°
2026-05-04 10:29 52.74010 13.99861 24905 ft 413 kts 348°
2026-05-04 10:29 52.76831 13.99280 25330 ft 415 kts 348°
2026-05-04 10:29 52.79687 13.98679 25759 ft 417 kts 348°
2026-05-04 10:30 52.82567 13.98069 26177 ft 419 kts 348°
2026-05-04 10:30 52.85466 13.97452 26581 ft 421 kts 348°
2026-05-04 10:30 52.88397 13.97026 26976 ft 428 kts 356°
2026-05-04 10:30 52.91381 13.97186 27421 ft 429 kts 356°
2026-05-04 10:31 52.94374 13.97232 27765 ft 432 kts 355°
2026-05-04 10:31 52.97390 13.97245 28103 ft 435 kts 355°
2026-05-04 10:32 53.15784 13.97152 30237 ft 447 kts 354°
2026-05-04 10:33 53.18899 13.97134 30542 ft 449 kts 354°
2026-05-04 10:33 53.22038 13.97114 30807 ft 452 kts 354°
2026-05-04 10:33 53.25184 13.97095 31080 ft 454 kts 354°
2026-05-04 10:33 53.28335 13.97076 31349 ft 456 kts 354°
2026-05-04 10:34 53.31518 13.97056 31616 ft 459 kts 354°
2026-05-04 10:34 53.34733 13.97038 31761 ft 464 kts 354°
2026-05-04 10:34 53.37960 13.97018 32075 ft 464 kts 354°
2026-05-04 10:34 53.41193 13.96999 32405 ft 465 kts 354°
2026-05-04 10:35 53.44422 13.96980 32775 ft 464 kts 354°
2026-05-04 10:35 53.47655 13.96960 33100 ft 465 kts 354°
2026-05-04 10:35 53.50888 13.96940 33424 ft 465 kts 353°
2026-05-04 10:35 53.54111 13.96920 33741 ft 465 kts 353°
2026-05-04 10:36 53.57352 13.96900 33971 ft 466 kts 353°
2026-05-04 10:36 53.60602 13.96881 33979 ft 467 kts 353°
2026-05-04 10:36 53.67069 13.96841 33962 ft 464 kts 353°
2026-05-04 10:37 53.73547 13.96801 33961 ft 466 kts 353°
2026-05-04 10:37 53.80023 13.96761 33957 ft 466 kts 353°
2026-05-04 10:39 53.99380 13.99394 33977 ft 485 kts 15°
2026-05-04 10:39 54.02560 14.01369 33935 ft 488 kts 15°
2026-05-04 10:40 54.08898 14.05412 33957 ft 488 kts 16°
2026-05-04 10:40 54.15242 14.09512 33955 ft 487 kts 16°
2026-05-04 10:41 54.21589 14.13629 33961 ft 488 kts 16°
2026-05-04 10:41 54.27925 14.17754 33956 ft 489 kts 16°
2026-05-04 10:42 54.34279 14.21903 33952 ft 489 kts 16°
2026-05-04 10:42 54.40632 14.26066 33952 ft 489 kts 16°
2026-05-04 10:43 54.46975 14.30369 33948 ft 493 kts 19°
2026-05-04 10:45 54.72186 14.49095 33936 ft 496 kts 18°
2026-05-04 10:45 54.78466 14.53784 33933 ft 496 kts 18°
2026-05-04 10:46 54.84879 14.58039 33934 ft 492 kts 13°
2026-05-04 10:46 54.91393 14.61980 33922 ft 493 kts 14°
2026-05-04 10:47 54.97811 14.65944 33913 ft 494 kts 14°
2026-05-04 10:47 55.04292 14.69965 33910 ft 494 kts 14°
2026-05-04 10:49 55.30177 14.86166 33904 ft 494 kts 14°
2026-05-04 10:50 55.36649 14.90252 33900 ft 494 kts 14°
2026-05-04 10:52 55.62339 15.06611 33864 ft 491 kts 13°
2026-05-04 10:52 55.68747 15.10728 33878 ft 491 kts 13°
2026-05-04 10:54 55.94417 15.27363 33858 ft 490 kts 14°
2026-05-04 10:56 56.19999 15.44177 33857 ft 488 kts 14°
2026-05-04 10:56 56.23178 15.46284 34123 ft 486 kts 14°
2026-05-04 10:57 56.26349 15.48389 34435 ft 485 kts 15°
2026-05-04 10:57 56.29471 15.50464 34729 ft 484 kts 15°
2026-05-04 10:57 56.32675 15.52597 34851 ft 485 kts 15°
2026-05-04 10:58 56.38922 15.56769 34820 ft 481 kts 15°
2026-05-04 10:58 56.45203 15.60978 34820 ft 481 kts 15°
2026-05-04 10:59 56.51465 15.65189 34822 ft 481 kts 15°
2026-05-04 10:59 56.57735 15.69420 34818 ft 481 kts 15°
2026-05-04 11:00 56.63985 15.73653 34808 ft 481 kts 15°
2026-05-04 11:02 56.89173 15.90866 34804 ft 486 kts 16°
2026-05-04 11:05 57.35513 16.23190 34770 ft 487 kts 16°
2026-05-04 11:06 57.41842 16.27669 34772 ft 487 kts 16°
2026-05-04 11:06 57.48163 16.32160 34773 ft 486 kts 16°
2026-05-04 11:08 57.69262 16.52369 34769 ft 493 kts 28°
2026-05-04 11:10 57.89557 16.76203 32659 ft 495 kts 28°
2026-05-04 11:12 58.09205 16.99587 29293 ft 467 kts 28°
2026-05-04 11:12 58.11975 17.02909 28779 ft 463 kts 28°
2026-05-04 11:12 58.14677 17.06155 28312 ft 458 kts 28°
2026-05-04 11:12 58.17353 17.09377 27880 ft 454 kts 28°
2026-05-04 11:13 58.19999 17.12565 27394 ft 451 kts 28°
2026-05-04 11:13 58.22635 17.15750 26903 ft 448 kts 28°
2026-05-04 11:13 58.25216 17.18873 26454 ft 445 kts 28°
2026-05-04 11:13 58.27814 17.22022 26008 ft 441 kts 28°
2026-05-04 11:14 58.30391 17.25151 25551 ft 438 kts 28°
2026-05-04 11:14 58.32951 17.28266 25113 ft 436 kts 28°
2026-05-04 11:14 58.35497 17.31367 24681 ft 433 kts 28°
2026-05-04 11:16 58.52900 17.52718 21628 ft 415 kts 29°
2026-05-04 11:16 58.55322 17.55710 21214 ft 412 kts 29°
2026-05-04 11:16 58.57721 17.58677 20804 ft 410 kts 29°
2026-05-04 11:17 58.60098 17.61623 20396 ft 407 kts 29°
2026-05-04 11:17 58.62467 17.64564 19987 ft 405 kts 29°
2026-05-04 11:19 58.78729 17.84873 17127 ft 391 kts 29°
2026-05-04 11:19 58.80990 17.87712 16745 ft 387 kts 28°
2026-05-04 11:19 58.83346 17.90068 16389 ft 378 kts 20°
2026-05-04 11:19 58.85679 17.92185 16098 ft 373 kts 21°
2026-05-04 11:20 58.88033 17.94377 15790 ft 368 kts 21°
2026-05-04 11:20 58.90292 17.96509 15485 ft 364 kts 21°
2026-05-04 11:20 58.92553 17.98660 15189 ft 360 kts 21°
2026-05-04 11:20 58.94782 18.00791 14876 ft 354 kts 21°
2026-05-04 11:22 59.10211 18.07821 12949 ft 320 kts
2026-05-04 11:22 59.12409 18.08516 12652 ft 319 kts
2026-05-04 11:23 59.14591 18.09209 12345 ft 317 kts
2026-05-04 11:23 59.16762 18.09901 12047 ft 315 kts
2026-05-04 11:24 59.29492 18.14005 10345 ft 304 kts
2026-05-04 11:25 59.31559 18.14751 10069 ft 301 kts
2026-05-04 11:25 59.33620 18.15340 9790 ft 299 kts
2026-05-04 11:25 59.35675 18.15892 9509 ft 297 kts
2026-05-04 11:26 59.39746 18.16979 8849 ft 292 kts
2026-05-04 11:27 59.53356 18.20537 6628 ft 266 kts
2026-05-04 11:28 59.55170 18.20994 6323 ft 262 kts
2026-05-04 11:28 59.56964 18.21448 6016 ft 260 kts
2026-05-04 11:28 59.58757 18.21899 5732 ft 258 kts
2026-05-04 11:28 59.60532 18.22337 5470 ft 256 kts
2026-05-04 11:29 59.62291 18.22759 5222 ft 254 kts
2026-05-04 11:29 59.64039 18.23179 4959 ft 252 kts
2026-05-04 11:29 59.65754 18.23591 4786 ft 245 kts
2026-05-04 11:29 59.67443 18.24000 4543 ft 244 kts
2026-05-04 11:31 59.76456 18.16040 3111 ft 200 kts 298°
2026-05-04 11:33 59.77287 18.00560 2458 ft 164 kts 198°
2026-05-04 11:33 59.76131 18.00013 2271 ft 178 kts 196°
2026-05-04 11:33 59.74912 17.99527 2081 ft 180 kts 194°
2026-05-04 11:34 59.73690 17.99082 1886 ft 176 kts 194°
2026-05-04 11:34 59.72540 17.98664 1704 ft 159 kts 194°
2026-05-04 11:34 59.71517 17.98294 1502 ft 141 kts 196°
2026-05-04 11:34 59.70562 17.97945 1324 ft 139 kts 195°
2026-05-04 11:35 59.69608 17.97598 1127 ft 139 kts 195°
2026-05-04 11:35 59.68660 17.97250 940 ft 139 kts 195°
2026-05-04 11:35 59.67702 17.96909 754 ft 141 kts 192°
2026-05-04 11:35 59.66742 17.96553 534 ft 139 kts 194°
2026-05-04 11:36 59.65801 17.96222 359 ft 137 kts 193°
2026-05-04 11:36 59.64860 17.95889 161 ft 137 kts 194°
2026-05-04 11:36 59.63988 17.95560 115 ft 104 kts 189°
2026-05-04 11:36 59.63502 17.95386 123 ft 37 kts 197°
2026-05-04 11:37 59.63302 17.95141 124 ft 25 kts 218°
2026-05-04 11:37 59.63252 17.94936 127 ft 17 kts 307°
2026-05-04 11:37 59.63368 17.94930 123 ft 19 kts 12°
2026-05-04 11:37 59.63514 17.94986 119 ft 24 kts
2026-05-04 11:38 59.63676 17.95043 115 ft 25 kts 10°
2026-05-04 11:38 59.63860 17.95108 112 ft 26 kts 11°
2026-05-04 11:38 59.64028 17.95171 111 ft 25 kts 10°
2026-05-04 11:38 59.64193 17.95229 109 ft 21 kts
2026-05-04 11:39 59.64341 17.95153 107 ft 24 kts 319°
2026-05-04 11:39 59.64401 17.94843 105 ft 26 kts 263°
2026-05-04 11:40 59.64089 17.92914 114 ft 28 kts 298°
2026-05-04 11:41 59.64180 17.92567 114 ft 28 kts 297°
2026-05-04 11:41 59.64270 17.92222 117 ft 29 kts 298°
2026-05-04 11:41 59.64357 17.91935 115 ft 19 kts 328°
2026-05-04 11:41 59.64495 17.91958 113 ft 22 kts 12°
2026-05-04 11:42 59.64651 17.92017 110 ft 22 kts 10°
2026-05-04 11:42 59.64743 17.92104 112 ft 12 kts 78°
2026-05-04 11:42 59.64728 17.92253 114 ft 11 kts 106°
2026-05-04 11:42 59.64697 17.92452 114 ft 20 kts 108°
2026-05-04 11:43 59.64677 17.92615 113 ft 5 kts 79°
2026-05-04 11:43 59.64706 17.92658 113 ft 4 kts 29°
2026-05-04 11:43 59.64720 17.92672 114 ft 1 kts 28°
2026-05-04 11:43 59.64720 17.92673 114 ft 0 kts 28°